Weather in Hoholskij

Russia / Voronezh Oblast     51°34′40″N   38°47′11″E
temp.,
°C
wind,
m/s
gust,
m/s
humid.,
%
clouds,
%
prec.,
mm/h
press.,
hPa
HPBL,
m
23 october, sat
sat2300:00+9wsw4125872 0.0 1011274
03:00+7sw39684 0.0 1012164
06:00+7sw51367100 0.0 1012322
09:00+11wsw4105596 0.0 1012565
12:00+13wsw4749100 0.0 1012841
15:00+15wsw7114385 0.0 10112060
18:00+9w511465 0.0 1013302
21:00+7w410634 0.0 1015315
24 october, sun
sun2400:00+5w511701 0.0 1017416
03:00+3w410829 0.0 1018313
06:00+3wsw488299 0.0 1018197
09:00+5wsw610675 0.0 1019416
12:00+9w784582 0.0 10191649
15:00+9w695187 0.0 10181670
18:00+6wnw6963100 0.1 1020896
21:00+4nw5980100 0.1 1022813
25 october, mon
mon2500:00+2nnw611745 0.1 1023549
03:00+1nnw511785 0.1 1025538
06:00−1nnw510845 0.0 1028413
09:00+1nnw59745 0.0 1030506
12:00+4nnw564728 0.0 10311057
15:00+5nnw55415 0.0 10311210
18:00+2nw22555 0.0 103227
21:00+1wnw22605 0.0 103211
26 october, tue
tue2600:000wsw22610 0.0 103322
03:00−1wsw34650 0.0 103358
06:00−2wsw35705 0.0 103381
09:00+1wsw476098 0.0 1033228
12:00+6wsw574286 0.0 1031581
15:00+8wsw56367 0.0 1029789
18:00+4sw36495 0.0 103087
21:00+2sw395338 0.0 1029145
27 october, wed
wed2700:00+1sw49535 0.0 1029160
03:00+1sw410545 0.0 1028166
06:000sw410545 0.0 1028165
09:00+3sw512415 0.0 1027299
12:00+8sw7102820 0.0 1025723
15:00+9sw61028100 0.0 1023885
18:00+6sw51134100 0.0 1022323
21:00+6wsw51233100 0.0 1021429